Overview Statistics Trail Chart Weather Telemetry Raw packets
 

This is the latest recevied weather packets stored in our database for station/object IW2NIA-3. If no packets are shown the sender has not sent any weather packets the latest 10 day(s).

<< 17 18 19 20 21 22 23 >>
Time Temp. Humidity Pressure Rain* Wind** Luminosity Snow
1788245317 21.67° C 80% 1017.7 hPa 0 mm - - -
1788244414 21.67° C 78% 1017.7 hPa 0 mm - - -
1788243511 21.67° C 74% 1017.5 hPa 0 mm - - -
1788242622 21.67° C 72% 1017.2 hPa 0 mm - - -
1788241721 20.56° C 74% 1017 hPa 0 mm - - -
1788240820 20° C 75% 1016.8 hPa 0 mm - - -
1788239909 20° C 73% 1016.6 hPa 0 mm - - -
1788239025 20° C 71% 1016.5 hPa 0 mm - - -
1788238111 20° C 69% 1016.4 hPa 0 mm - - -
1788237225 19.44° C 70% 1016.1 hPa 0 mm - - -
1788236308 20° C 68% 1015.9 hPa 0 mm - - -
1788235410 19.44° C 67% 1015.7 hPa 0 mm - - -
1788234522 20° C 67% 1015.5 hPa 0 mm - - -
1788233621 20° C 65% 1015.3 hPa 0 mm - - -
1788232717 19.44° C 70% 1015.2 hPa 0 mm - - -
1788231812 18.89° C 77% 1015 hPa 0 mm - - -
1788230910 18.89° C 79% 1015 hPa 0 mm - - -
1788230010 18.89° C 78% 1015 hPa 0 mm - - -
1788229123 18.89° C 81% 1015 hPa 0 mm - - -
1788228218 18.89° C 83% 1015 hPa 0 mm - - -
1788227327 18.89° C 84% 1015.1 hPa 0 mm - - -
1788226422 19.44° C 84% 1015.1 hPa 0 mm - - -
1788225517 18.89° C 85% 1015.1 hPa 0 mm - - -
1788224608 18.89° C 86% 1015.1 hPa 0 mm - - -
1788223709 19.44° C 86% 1015 hPa 0 mm - - -

* Rain latest hour (hover to see other rain measurements)
** Current wind speed in m/s (hover to see current wind gust speed)